Location: Campillo
(40.8621°N, 4.2488°W)
Time: 13:07:20
(UTC+00:00)

Cosmos 2154 Rocket - Pass Details

Date: 03 October 2021
Orbit: 965 x 997 km, 82.9° (Epoch: 15 October)

Event Time Altitude Azimuth Distance (km) Brightness Sun altitude
Rises 03:55:35 0° 10° (N) 3,694 7.4 -26.9°
Reaches altitude 10° 03:59:34 10° 34° (NE) 2,733 7.0 -26.2°
Maximum altitude 04:02:45 14° 65° (ENE) 2,428 7.0 -25.6°
Drops below altitude 10° 04:05:54 10° 96° (E) 2,715 7.2 -25.1°
Sets 04:09:48 0° 120° (ESE) 3,652 7.6 -24.4°
